Погода в Светлограде

Хотите узнать прогноз погоды в Светлограде? Тогда Вам сюда: Погода в Светлограде

Поиск расширенной информации на нашем сайте:

Полезная информация:

Новости сайта



02.01.2020
Опубликован Долгосрочный прогноз погоды по городам России и ближнего зарубежья на январь 2020 года.
Карты: Прогноз на январь и февраль 2020 года, Сравнение прогнозируемой аномалии приземной температуры воздуха на январь 2020 года по разным моделям.




Погода в Светлограде - сегодня

Время (UTC), дата Ветер
(°,м/с) 
Видим.   Явления Облачность Т
(°С)
Тd
(°С)
f(%) Тe
(°С)
Pmin
(гПа)
dP
(гПа)
Po
(мм)
O2
(г/м3)
Тmin Tmax R s Состояние
почвы
15 18.10.20 250 (З) 2{11}  20000 м    9/6 600 м верхняя 
[Sc|Ci]
+28.1 +9.6 31 +29  1008.8  745  270    +31.6       
18 18.10.20 тихо ()   20000 м    ясно 
+15 +7.5 61 +15  1015.2  749  285           
21 18.10.20 тихо ()   20000 м    ясно 
+11.8 +7.1 73 +12  1015.9  0.5  749  288           
00 19.10.20 тихо ()   20000 м    4/4 600 м 
[Sc]
+14.9 +9.8 71 +16  1016.7  0.9  750  285           
03 19.10.20 тихо ()   20000 м    8/8 600 м 
[Sc]
+12.6 +7.4 71 +13  1017.2  0.9  750  288  +11.5        сухая 
06 19.10.20 тихо ()   20000 м    8/8 600 м 
[Sc]
+16.8 +9.6 62 +17  1018  0.9  751  283           
09 19.10.20 360 (С) 20000 м    4/0 верхняя 
[Ci fib]
+21.4 +9.5 47 +22  1016  0.9  750  278           
12 19.10.20 340 (С) 20000 м    10/10 600 м 
[Sc]
+21.9 +8.8 43 +22  1015  -0.9  749  278           
15 19.10.20 360 (С) 10 км  слаб. ливневой дождь  10/10 300 м кучево-дожд. 
[Cb cap]
+16.4 +12.5 78 +22  1015.3  749  282    +23.1  0.0     
18 19.10.20 140 (ЮВ) 10 км  слаб. ливневой дождь  10/10 300 м кучево-дожд. 
[Cb cap]
+14.6 +13.9 96 +23  1017.9  2.5  751  284           
21 19.10.20 280 (З) 10 км  {ливн. осадки}  8/8 600 м 
[Sc diur, vesp]
+13.1 +11.5 90 +16  1020.1  752  287           
00 20.10.20 320 (СЗ) 20000 м  {ливн. осадки}  8/8 600 м 
[Sc]
+11.4 +8.8 84 +13  1023.1  2.9  755  290           
03 20.10.20 тихо ()   20000 м    8/8 600 м 
[Sc]
+9.7 +8.5 92 +10  1024.8  1.6  756  293  +9.7      влажная 
06 20.10.20 200 (Ю) 20000 м    4/4 600 м 
[Sc]
+12.5 +7.6 72 +13  1025.8  1.1  757  290  +9.7         
09 20.10.20 190 (Ю) 20000 м    8/8 600 м 
[Sc]
+15.7 +6.4 54 +16  1024.8  -0.8  756  287           
12 20.10.20 290 (З) 20000 м    9/9 600 м 
[Sc]
+14.3 +7.8 65 +14  1024.5  -0.4  756  288           
15 20.10.20 270 (З) 20000 м    9/9 600 м 
[Sc]
+12.4 +5.8 64 +14  1025.4  0.8  756  291    +15.8       
18 20.10.20 240 (ЮЗ) 20000 м    10/10 600 м 
[Sc]
+11.2 +5.7 69 +12  1026.1  0.6  757  292           
21 20.10.20 240 (ЮЗ) 20000 м    10/10 600 м 
[Sc]
+9.4 +4.6 72 +10  1027.1  0.8  757  294           
00 21.10.20 260 (З) 20000 м    10/10 600 м 
[Sc]
+9.5 +4.1 69 +11  1027.8  0.7  758  294           
03 21.10.20 280 (З) 20000 м    ясно 
+5.2 +2 80 +6  1029.3  1.2  759  300  +5.1         
06 21.10.20 230 (ЮЗ) 20000 м    ясно 
+10.4 +1.7 55 +12  1030.1  1.2  760  295  +4.3         
09 21.10.20 260 (З) 20000 м    ясно 
+14 +0.1 39 +14  1029.5  -0.4  759  291           
12 21.10.20 270 (З) 20000 м    4/0 верхняя 
[Ci fib]
+14.6 -1 34 +15  1028.4  -1  759  290           
15 21.10.20 тихо ()   20000 м    4/0 верхняя 
[Ci fib]
+8.6 +1.3 60 +9  1028.6  -0.2  758  296    +14.9       
Время (UTC), дата Ветер
(°,м/с) 
Видим.   Явления Облачность Т
(°С)
Тd
(°С)
f(%) Тe
(°С)
Pmin
(гПа)
dP
(гПа)
Po
(мм)
O2
(г/м3)
Тmin Tmax R s Состояние
почвы

Для получения пояснительной информации подведите курсор к названию столбца.

ПОГОДА в Светлограде - архив

Всё, что Вы хотите узнать о погоде в Светлограде - удобно и подробно!

Выберите нужную дату (начиная с 1 января 2019* года) и нажмите кнопку "Найти".
Будут отображены архивные сводки погоды по пункту Светлоград, начиная с указанной даты.


Отображать данные в формате CSV (для использования в таблицах Excel)


Внимание! Наш архив погоды предназначен исключительно для личного некоммерческого использования в познавательных целях. Если Вам необходимы официальные справки о состоянии погоды (для производственных, юридических, коммерческих и т.п. целей), обращайтесь в органы Росгидромета.

*Примечание: данная дата относится к архиву по метеостанциям СССР (Россия, СНГ, Балтия).
Архив по метеостанциям Зарубежной Европы и Азии (кроме Китая) хранится 10 дней, по другим регионам земного шара (Китай, Африка, Америка, Австралия, Океания) - 1 день.

Светлоград - район местоположения метеостанции


Название, широта, долгота, высота метеостанции:
Светлоград 45.3°ш. 42.9°д. 140 м над ур. моря [Российская Федерация]

Дополнительная информация

В oтличие oт бoльшинства пoгoдных сайтoв мы публикуем пoдрoбную метеoинфoрмацию в детальнoм прoфессиoнальнoм фoрмате.

Характеристики температуры и влажнoсти вoздуха измеряются на высoте 2 м в тени вдали oт зданий и деревьев.
Скoрoсть ветра измеряется на высoте 10 м (на урoвне рoста челoвека скoрoсть ветра ниже в 1.5-2 раза). Если метеoстанция нахoдится в гoрoде или в лесу, тo скoрoсть ветра занижена на 2-4 м/с пo сравнению с oткрытым местoм. Скoрoсть ветра над акватoриями крупных рек и oзёр, а также на вершинах хoлмoв на 2-5 м/с выше, чем в oбычных услoвиях.
Атмoсфернoе давление в разных тoчках местнoсти мoжет значительнo oтличаться oт давления на метеoстанции, в зависимoсти oт услoвий рельефа (при пoдъёме на 10 м давление пoнижается примернo на 1 мм рт.ст.).